Location: Unspecified
(43.1763°N, 179.4719°W)
Time: 09:00:00
(UTC-04:00)

ISS - Visible Passes

Search period start: 20 May 2019 00:00
Search period end: 30 May 2019 00:00
Orbit: 407 x 410 km, 51.6° (Epoch: 20 May)

Date Brightness Start Highest point End Pass type
(mag) Time Alt. Az. Time Alt. Az. Time Alt. Az.
20 May -3.9 04:22:42 10° SW 04:25:58 75° SE 04:29:16 10° ENE visible
20 May -1.5 06:00:00 10° WNW 06:02:49 25° NNW 06:05:39 10° NE visible
20 May -0.9 07:37:44 10° NW 07:40:11 19° N 07:42:37 10° NE visible
20 May -2.3 09:14:17 10° NW 09:17:25 37° NNE 09:20:31 10° E visible
20 May -3.2 10:52:31 23° W 10:53:58 34° SW 10:56:59 10° SSE visible
21 May -2.0 05:08:43 10° W 05:11:46 33° NNW 05:14:49 10° NE visible
21 May -0.9 06:46:37 10° NW 06:49:02 18° N 06:51:27 10° NE visible
21 May -1.5 08:23:27 10° NW 08:25:33 24° N 08:25:33 24° N visible
22 May -2.8 04:17:32 10° WSW 04:20:45 49° NNW 04:23:59 10° NE visible
22 May -1.0 05:55:21 10° WNW 05:57:53 20° N 06:00:24 10° NE visible
22 May -1.4 07:32:35 10° NW 07:35:16 22° NNE 07:35:43 21° NNE visible
23 May -1.2 05:04:02 10° WNW 05:06:44 23° NNW 05:09:27 10° NE visible
23 May -1.1 06:41:37 10° NW 06:44:07 19° N 06:46:08 12° NE visible
23 May -1.1 08:18:03 10° NW 08:18:50 16° NW 08:18:50 16° NW visible
24 May -1.6 04:12:41 10° W 04:15:37 29° NNW 04:18:34 10° NE visible
24 May -1.0 05:50:31 10° NW 05:52:56 18° N 05:55:21 10° NE visible
24 May -1.7 07:27:12 10° NW 07:29:22 27° N 07:29:22 27° N visible
25 May -1.0 04:59:17 10° NW 05:01:45 19° N 05:04:12 10° NE visible
25 May -1.7 06:36:19 10° NW 06:39:06 24° NNE 06:39:57 22° NE visible
26 May -1.2 04:07:57 10° WNW 04:10:33 21° N 04:13:09 10° NE visible
26 May -1.3 05:45:22 10° NW 05:47:57 21° N 05:50:31 10° ENE visible
26 May -1.6 07:21:44 10° NW 07:23:16 24° NW 07:23:16 24° NW visible
27 May -1.2 04:54:17 10° NW 04:56:44 19° N 04:59:10 10° NE visible
27 May -2.5 06:30:49 10° NW 06:33:55 38° NNE 06:33:55 38° NNE visible
28 May -1.1 04:03:05 10° NW 04:05:30 18° N 04:07:55 10° NE visible
28 May -1.9 05:39:55 10° NW 05:42:49 27° NNE 05:44:34 18° ENE visible
28 May -1.3 07:16:19 10° WNW 07:17:17 18° WNW 07:17:17 18° WNW visible
29 May -1.6 04:48:58 10° NW 04:51:38 22° NNE 04:54:19 10° ENE visible
29 May -3.1 06:25:18 10° NW 06:27:57 53° NW 06:27:57 53° NW visible
